Elkins, WV

12:42 AM EDT on June 27, 2017 (GMT -0400)
Elkins-Randolph County

Weather History for KEKN - September, 2013

Change the Weather History Date:

Thursday, September 26, 2013

  Actual Average Record
Temperature  
Mean Temperature 61 °F 58 °F  
Max Temperature 75 °F 70 °F 87 °F (1930)
Min Temperature 47 °F 47 °F 30 °F (1950)
Degree Days  
Heating Degree Days 4 7  
Month to date heating degree days 91 97  
Since 1 July heating degree days 114 127  
Cooling Degree Days 0 1  
Month to date cooling degree days 60 44  
Year to date cooling degree days 523 470  
Growing Degree Days 12 (Base 50)    
Moisture  
Dew Point 53 °F    
Average Humidity 87    
Maximum Humidity 96    
Minimum Humidity 78    
Precipitation  
Precipitation 0.00 in 0.12 in 1.57 in (1902)
Month to date precipitation 2.37 3.18  
Year to date precipitation 35.29 35.99  
Snow  
Snow 0.00 in - - ()
Month to date snowfall 0.0  
Since 1 September snowfall 0.0  
Snow Depth 0.00 in    
Sea Level Pressure  
Sea Level Pressure 30.02 in    
Wind  
Wind Speed 2 mph (West)    
Max Wind Speed 10 mph    
Max Gust Speed 14 mph    
Visibility 9 miles    
Events      
T = Trace of Precipitation, MM = Missing Value Source: NWS Daily Summary

Daily Weather History Graph

Daily Weather History Graph

Search for Another Location

Airport or City:

Trip Planner

Search our weather history database for the weather conditions in past years. The results will help you decide how hot, cold, wet, or windy it might be!

Date:

Astronomy

Sep. 26, 2013 Rise Set
Actual Time 7:10 AM EDT 7:09 PM EDT
Civil Twilight 6:44 AM EDT 7:36 PM EDT
Nautical Twilight 6:13 AM EDT 8:07 PM EDT
Astronomical Twilight 5:41 AM EDT 8:38 PM EDT
Moon No Moon Rise 1:59 PM EDT (9/26)
Length of Visible Light 12h 51m
Length of Day
11h 58m
Waning Gibbous, 55% of the Moon is Illuminated
Sep 26
Waning Gibbous
Sep 26
Last Quarter
Oct 4
New
Oct 11
First Quarter
Oct 18
Full

Hourly Weather History & Observations

Time (EDT) Temp. Dew Point Humidity Pressure Visibility Wind Dir Wind Speed Gust Speed Precip Events Conditions
12:09 AM 60.8 °F 57.2 °F 88% 29.98 in 10.0 mi Calm Calm - N/A   Overcast
12:51 AM 61.0 °F 57.9 °F 90% 29.97 in 10.0 mi Calm Calm - N/A   Overcast
1:04 AM 60.8 °F 57.2 °F 88% 29.98 in 10.0 mi Calm Calm - N/A   Overcast
1:07 AM 60.8 °F 57.2 °F 88% 29.97 in 10.0 mi Calm Calm - N/A   Overcast
1:19 AM 60.8 °F 57.2 °F 88% 29.97 in 10.0 mi Calm Calm - N/A   Mostly Cloudy
1:51 AM 59.0 °F 57.0 °F 93% 29.96 in 10.0 mi Calm Calm - N/A   Mostly Cloudy
2:51 AM 57.9 °F 55.9 °F 93% 29.96 in 10.0 mi Calm Calm - N/A   Clear
3:51 AM 55.0 °F 53.1 °F 93% 29.97 in 7.0 mi Calm Calm - N/A   Scattered Clouds
4:12 AM 55.4 °F 53.6 °F 94% 29.98 in 9.0 mi Calm Calm - N/A   Mostly Cloudy
4:51 AM 55.0 °F 53.1 °F 93% 29.97 in 10.0 mi Calm Calm - N/A   Overcast
5:00 AM 55.4 °F 53.6 °F 94% 29.99 in 10.0 mi Calm Calm - N/A   Overcast
5:23 AM 55.4 °F 53.6 °F 94% 29.99 in 10.0 mi Calm Calm - N/A   Overcast
5:51 AM 55.0 °F 53.1 °F 93% 29.99 in 10.0 mi Calm Calm - N/A   Mostly Cloudy
6:01 AM 53.6 °F 51.8 °F 94% 30.00 in 10.0 mi Calm Calm - N/A   Scattered Clouds
6:08 AM 53.6 °F 51.8 °F 94% 30.00 in 3.0 mi Calm Calm - N/A   Mostly Cloudy
6:10 AM 53.6 °F 51.8 °F 94% 30.00 in 2.0 mi Calm Calm - N/A   Mostly Cloudy
6:13 AM 53.6 °F 51.8 °F 94% 30.00 in 1.5 mi Calm Calm - N/A   Scattered Clouds
6:26 AM 51.8 °F 50.0 °F 94% 30.00 in 3.0 mi Calm Calm - N/A   Scattered Clouds
6:51 AM 50.0 °F 48.9 °F 96% 30.01 in 5.0 mi Calm Calm - N/A   Partly Cloudy
7:09 AM 50.0 °F 48.2 °F 94% 30.01 in 1.8 mi Calm Calm - N/A   Clear
7:16 AM 51.8 °F 48.2 °F 88% 30.01 in 1.5 mi Calm Calm - N/A   Partly Cloudy
7:25 AM 51.8 °F 50.0 °F 94% 30.02 in 2.5 mi Calm Calm - N/A   Mostly Cloudy
7:32 AM 51.8 °F 50.0 °F 94% 30.02 in 10.0 mi Calm Calm - N/A   Mostly Cloudy
7:51 AM 53.1 °F 51.1 °F 93% 30.03 in 10.0 mi Calm Calm - N/A   Mostly Cloudy
8:29 AM 53.6 °F 51.8 °F 94% 30.03 in 10.0 mi SSE 3.5 mph - N/A   Overcast
8:51 AM 55.9 °F 54.0 °F 93% 30.05 in 10.0 mi WSW 3.5 mph - N/A   Overcast
9:05 AM 55.4 °F 53.6 °F 94% 30.05 in 10.0 mi SW 4.6 mph - N/A   Mostly Cloudy
9:32 AM 55.4 °F 53.6 °F 94% 30.05 in 10.0 mi Calm Calm - N/A   Overcast
9:51 AM 57.9 °F 54.0 °F 87% 30.06 in 10.0 mi WSW 4.6 mph - N/A   Scattered Clouds
10:51 AM 63.0 °F 55.0 °F 75% 30.05 in 10.0 mi Calm Calm - N/A   Clear
11:51 AM 69.1 °F 54.0 °F 58% 30.05 in 10.0 mi NNW 3.5 mph - N/A   Clear
12:51 PM 71.1 °F 54.0 °F 55% 30.03 in 10.0 mi Calm Calm - N/A   Clear
1:51 PM 73.0 °F 51.1 °F 46% 30.02 in 10.0 mi Calm Calm - N/A   Clear
2:51 PM 73.9 °F 48.9 °F 41% 30.01 in 10.0 mi WNW 6.9 mph - N/A   Clear
3:51 PM 73.9 °F 48.9 °F 41% 30.02 in 10.0 mi West 8.1 mph - N/A   Clear
4:51 PM 73.9 °F 51.1 °F 45% 30.02 in 10.0 mi WNW 10.4 mph - N/A   Scattered Clouds
5:51 PM 72.0 °F 52.0 °F 49% 30.04 in 10.0 mi NNW 6.9 mph - N/A   Clear
6:51 PM 66.9 °F 53.1 °F 61% 30.07 in 10.0 mi Calm Calm - N/A   Clear
7:51 PM 61.0 °F 54.0 °F 78% 30.09 in 10.0 mi Calm Calm - N/A   Clear
8:51 PM 55.0 °F 52.0 °F 89% 30.11 in 10.0 mi Calm Calm - N/A   Clear
9:51 PM 52.0 °F 50.0 °F 93% 30.13 in 10.0 mi Calm Calm - N/A   Clear
10:51 PM 50.0 °F 48.0 °F 93% 30.13 in 10.0 mi Calm Calm - N/A   Clear
11:51 PM 48.0 °F 46.0 °F 93% 30.13 in 8.0 mi Calm Calm - N/A   Clear